This is the latest recevied weather packets stored in our database for station/object KC5TIL-3. If no packets are shown the sender has not sent any weather packets the latest 10 day(s).
| Time | Temp. | Humidity | Pressure | Rain* | Wind** | Luminosity | Snow |
|---|---|---|---|---|---|---|---|
| 1788071461 | 31.67° C | 18% | 1012.8 hPa | 0 mm | 3.13 m/s, 215° | - | - |
| 1788071159 | 31.67° C | 18% | 1012.8 hPa | 0 mm | 3.13 m/s, 103° | - | - |
| 1788070861 | 31.67° C | 18% | 1012.8 hPa | 0 mm | 2.68 m/s, 143° | - | - |
| 1788070563 | 31.67° C | 18% | 1012.8 hPa | 0 mm | 2.24 m/s, 207° | - | - |
| 1788070262 | 31.67° C | 18% | 1012.8 hPa | 0 mm | 2.24 m/s, 207° | - | - |
| 1788069959 | 31.67° C | 18% | 1012.8 hPa | 0 mm | 3.13 m/s, 215° | - | - |
| 1788069661 | 31.67° C | 17% | 1012.8 hPa | 0 mm | 3.13 m/s, 169° | - | - |
| 1788069360 | 31.67° C | 17% | 1012.8 hPa | 0 mm | 2.68 m/s, 175° | - | - |
| 1788069061 | 31.67° C | 17% | 1012.8 hPa | 0 mm | 3.13 m/s, 134° | - | - |
| 1788068763 | 31.67° C | 17% | 1012.8 hPa | 0 mm | 2.24 m/s, 189° | - | - |
| 1788068462 | 31.67° C | 17% | 1012.8 hPa | 0 mm | 2.68 m/s, 184° | - | - |
| 1788068159 | 31.67° C | 17% | 1012.8 hPa | 0 mm | 2.68 m/s, 175° | - | - |
| 1788067861 | 31.67° C | 17% | 1012.8 hPa | 0 mm | 3.13 m/s, 213° | - | - |
| 1788067559 | 31.67° C | 17% | 1012.8 hPa | 0 mm | 2.24 m/s, 201° | - | - |
| 1788067257 | 31.67° C | 17% | 1012.8 hPa | 0 mm | 2.24 m/s, 142° | - | - |
| 1788066959 | 31.67° C | 17% | 1012.8 hPa | 0 mm | 2.68 m/s, 141° | - | - |
| 1788066657 | 31.67° C | 17% | 1012.8 hPa | 0 mm | 1.79 m/s, 186° | - | - |
| 1788066359 | 31.67° C | 17% | 1012.8 hPa | 0 mm | 2.24 m/s, 212° | - | - |
| 1788066061 | 31.67° C | 17% | 1012.8 hPa | 0 mm | 1.79 m/s, 190° | - | - |
| 1788065760 | 31.67° C | 17% | 1012.8 hPa | 0 mm | 1.79 m/s, 205° | - | - |
| 1788065461 | 31.67° C | 17% | 1012.8 hPa | 0 mm | 1.79 m/s, 216° | - | - |
| 1788065163 | 31.67° C | 15% | 1012.8 hPa | 0 mm | 1.79 m/s, 187° | - | - |
| 1788064862 | 32.22° C | 15% | 1012.8 hPa | 0 mm | 1.79 m/s, 220° | - | - |
| 1788064564 | 32.22° C | 15% | 1012.8 hPa | 0 mm | 1.34 m/s, 195° | - | - |
| 1788064266 | 32.22° C | 15% | 1012.8 hPa | 0 mm | 1.79 m/s, 142° | - | - |
* Rain latest hour (hover to see other rain measurements)
** Current wind speed in m/s (hover to see current wind gust speed)